EW6103 Weather Reports


time (UTC)temp
C
wind
direction
speed
KPH
gust
KPH
rain 1hr
cm
rain 24hr
cm
rain mn
cm
humidity
%
barometer
mb
20260903171007 19 270 1.6 4.8 0.00 0.05 0.03 68 1016.5
20260903165008 20 270 3.2 6.4 0.00 0.05 0.03 68 1016.7
20260903164009 20 270 4.8 8.0 0.00 0.05 0.03 66 1016.9
20260903163012 21 135 4.8 6.4 0.00 0.05 0.03 65 1016.6
20260903161007 21 225 1.6 6.4 0.00 0.05 0.03 64 1016.5
20260903160012 21 270 1.6 3.2 0.00 0.05 0.03 59 1016.8
20260903155006 21 270 0.0 1.6 0.00 0.05 0.03 64 1016.7
20260903154008 21 135 0.0 3.2 0.00 0.05 0.03 60 1016.7
20260903152007 21 0 1.6 4.8 0.00 0.05 0.03 59 1017.1
20260903150013 21 180 4.8 9.7 0.00 0.05 0.03 59 1017.0
20260903145012 22 270 6.4 12.9 0.00 0.05 0.03 56 1016.9
20260903143009 24 135 3.2 6.4 0.00 0.05 0.03 55 1016.7
20260903142009 23 0 6.4 12.9 0.00 0.05 0.03 54 1017.0
20260903141010 23 270 6.4 12.9 0.00 0.05 0.03 53 1016.9
20260903140011 23 270 6.4 11.3 0.00 0.05 0.03 56 1017.2
20260903135011 23 270 4.8 8.0 0.00 0.05 0.03 59 1017.1
20260903133013 22 135 4.8 6.4 0.00 0.05 0.03 64 1017.2
20260903132012 21 135 3.2 6.4 0.00 0.05 0.03 63 1017.1
20260903131010 22 135 4.8 6.4 0.00 0.05 0.03 61 1017.4
20260903130017 21 0 3.2 6.4 0.00 0.05 0.03 64 1017.6
20260903125006 21 225 4.8 6.4 0.00 0.05 0.03 63 1017.5
20260903124008 21 135 6.4 11.3 0.00 0.05 0.03 63 1017.5
20260903123010 21 135 4.8 6.4 0.00 0.05 0.03 63 1017.5
20260903122006 21 135 3.2 6.4 0.00 0.05 0.03 64 1017.5
20260903120020 21 135 8.0 12.9 0.00 0.05 0.03 65 1017.8
20260903115007 21 270 8.0 14.5 0.00 0.05 0.03 64 1017.9
20260903114010 21 270 6.4 12.9 0.00 0.05 0.03 61 1018.0
20260903113013 23 270 11.3 17.7 0.00 0.05 0.03 60 1018.0
20260903112006 22 315 9.7 17.7 0.00 0.05 0.03 62 1018.0
20260903111006 22 135 6.4 11.3 0.00 0.05 0.03 60 1018.4
20260903110016 23 135 8.0 14.5 0.00 0.05 0.03 59 1018.2
20260903105006 23 270 9.7 14.5 0.00 0.05 0.03 63 1018.1
20260903104012 22 270 6.4 12.9 0.00 0.05 0.03 63 1018.4
20260903103012 22 45 9.7 17.7 0.00 0.05 0.03 62 1018.4
20260903102008 22 0 6.4 11.3 0.00 0.05 0.03 66 1018.5
20260903101010 21 135 6.4 11.3 0.03 0.05 0.03 62 1018.6
20260903100015 21 135 4.8 6.4 0.03 0.05 0.03 65 1018.6
20260903095009 21 270 3.2 8.0 0.03 0.05 0.03 66 1018.8
20260903094007 21 135 4.8 8.0 0.03 0.05 0.03 68 1018.8
20260903093012 20 135 4.8 6.4 0.03 0.05 0.03 70 1018.9
20260903092007 20 135 1.6 4.8 0.03 0.05 0.03 71 1018.9
20260903091014 20 135 3.2 6.4 0.00 0.03 0.00 72 1018.9
20260903090012 20 270 3.2 6.4 0.00 0.03 0.00 71 1019.1
20260903085009 19 270 3.2 6.4 0.00 0.03 0.00 72 1019.3
20260903084007 19 135 3.2 6.4 0.00 0.03 0.00 75 1019.3
20260903083011 19 270 3.2 6.4 0.00 0.03 0.00 76 1019.5
20260903082009 18 225 1.6 6.4 0.00 0.03 0.00 78 1019.4
20260903081007 17 225 1.6 6.4 0.00 0.03 0.00 79 1019.5
20260903080018 17 270 3.2 6.4 0.00 0.03 0.00 80 1019.4
20260903075007 17 270 3.2 6.4 0.00 0.03 0.00 82 1019.6
20260903074008 16 225 1.6 3.2 0.00 0.03 0.00 84 1019.7
20260903072007 16 180 1.6 4.8 0.00 0.03 0.00 87 1019.7
20260903070016 15 180 1.6 3.2 0.00 0.03 0.00 91 1019.7
20260903065007 15 270 0.0 4.8 0.00 0.03 0.00 90 1019.7
20260903064006 15 225 3.2 6.4 0.00 0.03 0.00 92 1019.9
20260903063009 14 180 1.6 3.2 0.00 0.03 0.00 93 1019.7
20260903062008 13 225 1.6 3.2 0.00 0.03 0.00 95 1019.8
20260903061010 13 225 1.6 4.8 0.00 0.03 0.00 96 1019.9
20260903060010 13 270 1.6 4.8 0.00 0.03 0.00 97 1020.0
20260903055007 12 270 1.6 3.2 0.00 0.03 0.00 98 1019.8
20260903054008 12 90 0.0 1.6 0.00 0.03 0.00 98 1019.7
20260903053016 11 90 1.6 3.2 0.00 0.03 0.00 98 1019.7
20260903050014 11 225 0.0 0.0 0.00 0.03 0.00 98 1019.8
20260903045008 10 225 0.0 0.0 0.00 0.03 0.00 98 1019.8
20260903044007 10 225 0.0 0.0 0.00 0.03 0.00 98 1019.9
20260903043010 10 225 0.0 1.6 0.00 0.03 0.00 97 1019.5
20260903041007 10 180 0.0 0.0 0.00 0.03 0.00 97 1019.5
20260903040011 10 180 0.0 0.0 0.00 0.03 0.00 97 1019.5
20260903035009 10 225 0.0 0.0 0.00 0.03 0.00 97 1019.5
20260903034009 11 225 0.0 0.0 0.00 0.03 0.00 97 1019.5
20260903033013 11 225 0.0 1.6 0.00 0.03 0.00 97 1019.4
20260903032008 11 90 0.0 1.6 0.00 0.03 0.00 97 1019.4
20260903031009 11 90 0.0 3.2 0.00 0.03 0.00 97 1019.4
20260903030017 11 90 0.0 1.6 0.00 0.03 0.00 97 1019.5
20260903025005 11 45 0.0 1.6 0.00 0.03 0.00 97 1019.4
20260903021010 12 0 3.2 6.4 0.00 0.03 0.00 97 1019.5
20260903020015 11 0 1.6 6.4 0.00 0.03 0.00 97 1019.5
20260903015008 11 270 0.0 3.2 0.00 0.03 0.00 97 1019.4
20260903013010 11 270 1.6 3.2 0.00 0.03 0.00 97 1019.4
20260903012006 11 270 0.0 3.2 0.00 0.03 0.00 97 1019.2
20260903010014 11 270 0.0 0.0 0.00 0.03 0.00 96 1019.3
20260903005006 11 270 0.0 0.0 0.00 0.03 0.00 96 1019.3
20260903004008 11 270 0.0 1.6 0.00 0.03 0.00 96 1019.4
20260903003008 12 270 0.0 1.6 0.00 0.03 0.00 96 1019.4
20260903002008 12 270 0.0 1.6 0.00 0.03 0.00 96 1019.4
20260903001008 12 270 0.0 1.6 0.00 0.03 0.00 96 1019.4
20260902235009 12 270 0.0 1.6 0.00 0.03 0.00 95 1019.6
20260902232007 12 270 0.0 3.2 0.00 0.03 0.00 95 1019.6
20260902231009 12 270 1.6 4.8 0.00 0.03 0.00 95 1019.5
20260902230014 12 270 1.6 3.2 0.00 0.03 0.00 94 1019.6
20260902225006 13 180 1.6 4.8 0.00 0.03 0.00 94 1019.6
20260902224009 13 180 3.2 6.4 0.00 0.03 0.00 93 1019.6
20260902223008 13 180 1.6 4.8 0.00 0.03 0.00 92 1019.6
20260902222009 13 270 0.0 3.2 0.00 0.03 0.00 91 1019.4
20260902221007 13 225 1.6 4.8 0.00 0.03 0.00 91 1019.5
20260902220019 13 90 3.2 6.4 0.00 0.03 0.00 90 1019.5
20260902215008 13 180 0.0 1.6 0.00 0.03 0.03 89 1019.3
20260902213010 14 45 3.2 4.8 0.00 0.03 0.03 87 1019.2
20260902212005 14 90 1.6 4.8 0.00 0.03 0.03 88 1019.1
20260902211008 14 90 1.6 4.8 0.03 0.03 0.03 87 1019.1
20260902210011 15 90 3.2 6.4 0.03 0.03 0.03 86 1019.2
20260902205009 15 45 1.6 6.4 0.03 0.03 0.03 82 1019.2
20260902204008 15 45 6.4 14.5 0.03 0.03 0.03 82 1019.0
20260902203008 15 0 6.4 11.3 0.03 0.03 0.03 84 1019.4
20260902201007 17 180 17.7 30.6 0.00 0.00 0.00 73 1019.2
20260902200013 15 45 0.0 4.8 0.00 0.00 0.00 83 1018.3
20260902194007 15 45 0.0 1.6 0.00 0.00 0.00 85 1018.5
20260902193009 15 45 0.0 0.0 0.00 0.00 0.00 83 1018.5
20260902192006 16 45 0.0 1.6 0.00 0.00 0.00 82 1018.5
20260902191007 16 45 0.0 1.6 0.00 0.00 0.00 79 1018.4
20260902190013 16 45 0.0 1.6 0.00 0.00 0.00 79 1018.4
20260902185008 16 135 1.6 4.8 0.00 0.00 0.00 77 1018.3
20260902184006 17 45 0.0 1.6 0.00 0.00 0.00 76 1018.2
20260902182008 17 45 0.0 3.2 0.00 0.00 0.00 75 1018.2
20260902181007 17 90 1.6 3.2 0.00 0.00 0.00 75 1018.1
20260902180014 18 45 0.0 3.2 0.00 0.00 0.00 71 1018.1
20260902175007 18 90 1.6 4.8 0.00 0.00 0.00 72 1017.9
20260902174007 19 90 1.6 4.8 0.00 0.00 0.00 69 1017.8
20260902173008 20 45 0.0 3.2 0.00 0.00 0.00 66 1017.8